Regional Weather Roundup
Issued by NWS Burlington, VT

Home | Current Version | Previous Version | Text Only | Print | Product List | Glossary On
Versions: 1 2 3 4 5 6 7 8 9 10 11 12 13 14 15 16 17 18 19 20 21 22 23 24 25 26 27 28 29 30 31 32 33 34 35 36 37 38 39
000
ASUS41 KBTV 231910
RWRBTV
VERMONT REGIONAL WEATHER ROUNDUP
NATIONAL WEATHER SERVICE BURLINGTON VT
300 PM EDT THU OCT 23 2014

NOTE: "FAIR" INDICATES FEW OR NO CLOUDS BELOW 12,000 FEET WITH NO
SIGNIFICANT WEATHER AND/OR OBSTRUCTIONS TO VISIBILITY.

* THESE REPORTS ARE NOT UNDER NWS QUALITY CONTROL AND/OR DO NOT
  REPORT WEATHER SUCH AS PRECIPITATION AND FOG.

VTZ001>019-232000-
_____VERMONT_____


CITY           SKY/WX    TMP DP  RH WIND       PRES   REMARKS
BURLINGTON     LGT RAIN  45  42  89 N17G24    29.91F FOG
MONTPELIER     LGT RAIN  43  42  97 N12       29.90S
MORRISVILLE    LGT RAIN  45  42  89 N8        29.91F
ST. JOHNSBURY*   N/A     47  46  97 MISG      29.83F
LYNDONVILLE*   CLOUDY    49  44  83 NW9       29.86R
MIDDLEBURY*    LGT RAIN  43  43 100 N9        29.85F
RUTLAND*       CLOUDY    43  41  93 N7        29.82S
SPRINGFIELD    CLOUDY    48  44  86 VRB7      29.78S
HIGHGATE*      RAIN      44  43  96 N10       29.95F
NEWPORT*       LGT RAIN  44  43  97 N13       29.91F
BENNINGTON     CLOUDY    45  42  89 NW8       29.78S

_____LAKE CHAMPLAIN_____


CITY           SKY/WX    TMP DP  RH WIND       PRES   REMARKS
COLCHESTER RF*   N/A     45  45 100 N24         N/A
DIAMOND ISL*     N/A     45  43  93 NW25        N/A

$$

NYZ007-026>031-035-052-083-232000-
_____NORTHERN NEW YORK_____


CITY           SKY/WX    TMP DP  RH WIND       PRES   REMARKS
PLATTSBURGH    LGT RAIN  45  44  97 N14       29.95F FOG
SARANAC LAKE   CLOUDY    42  40  92 NE10      29.91F FOG
MASSENA        CLOUDY    47  43  86 NE12      30.02S
OGDENSBURG*    CLOUDY    52  43  71 NE8       29.99S
POTSDAM*       LGT RAIN  46  45  93 NE13G20   29.99S
WATERTOWN      CLOUDY    54  39  57 N16       29.97S
FT DRUM        CLOUDY    51  39  63 NE14      29.96R
ALBANY         CLOUDY    49  44  83 N9G20     29.82F
GLENS FALLS    LGT RAIN  47  43  86 N20G29    29.83S

$$
NHZ002-005-011-232000-
_____NEW HAMPSHIRE_____


CITY           SKY/WX    TMP DP  RH WIND       PRES   REMARKS
LEBANON        CLOUDY    51  46  83 N15G21    29.78S
KEENE          CLOUDY    48  43  81 N14       29.72R
MT WASHINGTON  FRZ RAIN  32  32 100 E58G68      N/A  VSB 1/16
PLYMOUTH       LGT RAIN  51  51 100 CALM      29.77R
WHITEFIELD     LGT RAIN  50  46  86 E9        29.83S

$$

_____REGIONAL QUEBEC LOCATIONS_____


CITY           SKY/WX    TMP DP  RH WIND       PRES   REMARKS
MONTREAL       LGT RAIN  48  45  87 NE14G24   30.00F
QUEBEC CITY    CLOUDY    46  37  71 E15G24    30.06F
SHERBROOKE     RAIN      45  43  93 NE10G18   29.93  FOG

_____REGIONAL ONTARIO LOCATIONS_____


CITY           SKY/WX    TMP DP  RH WIND       PRES   REMARKS
OTTAWA         CLOUDY    54  45  71 NE16      30.02F

______KEY______
VSB  - VISIBILITY IN MILES
WCI  - WIND CHILL INDEX
HX   - HEAT INDEX
$$
NNNN



USA.gov is the U.S. government's official web portal to all federal, state and local government web resources and services.